Regional Weather Roundup
Issued by NWS

Home | Current Version | Previous Version | Text Only | Print | Product List | Glossary On
Versions: 1 2 3 4 5 6 7 8 9 10 11 12 13 14 15 16 17 18 19 20 21 22 23 24 25 26 27 28 29 30 31 32 33 34 35 36 37 38 39 40 41 42 43 44 45 46 47 48 49 50
000
ASUS44 KFWD 112315
RWRTX
NORTH TEXAS HOURLY WEATHER ROUNDUP
NATIONAL WEATHER SERVICE FORT WORTH TX
500 PM CST THU FEB 11 2016

NOTE: "FAIR" INDICATES FEW OR NO CLOUDS BELOW 12,000 FEET WITH NO
SIGNIFICANT WEATHER AND/OR OBSTRUCTIONS TO VISIBILITY.

TXZ118-119-120000-
DALLAS/FORT WORTH METROPLEX

CITY           SKY/WX    TMP DP  RH WIND       PRES   REMARKS
DFW AIRPORT    MOSUNNY   73  33  23 N5        30.06S
DALLAS LOVE    MOSUNNY   74  33  22 NW5       30.05S
FTW MEACHAM    SUNNY     74  37  26 N6        30.06R
DAL-EXECUTIVE  SUNNY     75  32  20 N5        30.05R
FTW-ALLIANCE   MOSUNNY   73  35  25 CALM      30.06S
FTW-NAS-JRB    SUNNY     75  32  20 NE6       30.06S
FTW-SPINKS     SUNNY     77  32  19 CALM      30.07S
ARLINGTON      SUNNY     79  32  18 N3        30.05S
GRAND PRAIRIE  SUNNY     73  34  23 N9        30.07R
ADDISON        SUNNY     73  32  21 CALM      30.06F
LANCASTER      SUNNY     77  27  15 CALM      30.06R
$$

TXZ091>094-102>105-117-120-121-131>134-120000-
NORTH CENTRAL TEXAS

CITY           SKY/WX    TMP DP  RH WIND       PRES   REMARKS
SHRMAN/DENISON SUNNY     69  34  27 N10       30.10R
GAINESVILLE    SUNNY     70  32  24 E7        30.10R
BOWIE          SUNNY     71  28  20 CALM      30.08R
BRIDGEPORT     SUNNY     72  38  28 E5        30.09R
DECATUR        SUNNY     71  31  23 NE5       30.08R
DENTON         SUNNY     72  35  25 N8        30.07R
MCKINNEY       SUNNY     73  37  27 VRB3      30.06S
GREENVILLE     SUNNY     73  34  23 CALM      30.07R
ROCKWALL       SUNNY     73  33  23 NE6       30.05S
TERRELL        SUNNY     75  35  23 SW3       30.06S
WAXAHACHIE     SUNNY     76  37  24 CALM      30.07R
CLEBURNE       SUNNY     77  36  22 CALM      30.07R
GRANBURY       SUNNY     78  35  21 CALM      30.06S
$$

TXZ083>090-098>101-113>116-127>130-139>142-154-155-120000-
WESTERN NORTH TEXAS

CITY           SKY/WX    TMP DP  RH WIND       PRES   REMARKS
WICHITA FALLS  SUNNY     68  34  28 NE10      30.10R
WF-KICKAPOO    SUNNY     71  32  23 NE5       30.10S
VERNON         SUNNY     68  26  20 E7        30.12R
ABILENE        SUNNY     73  28  18 CALM      30.09R
ABILENE-DYESS  SUNNY     71  32  23 NE3       30.08R
BRECKENRIDGE   SUNNY     74  29  19 CALM      30.08R
GRAHAM         SUNNY     73  37  27 N3        30.07R
MINERAL WELLS  SUNNY     76  28  17 NW5       30.05R
STEPHENVILLE   SUNNY     78  29  16 NE5       30.09R
COMANCHE       SUNNY     81  31  16 W7        30.06R
BROWNWOOD      SUNNY     81  25  12 W5        30.06R
COLEMAN        SUNNY     80  25  13 W8        30.07R
$$

TXZ143>147-156>162-174-175-120000-
CENTRAL TEXAS

CITY           SKY/WX    TMP DP  RH WIND       PRES   REMARKS
WACO           SUNNY     80  36  20 S10       30.03R
WACO-TSTC      SUNNY     82  30  15 SE9       30.04S
WACO-MCGREGOR  SUNNY     82  37  20 S13       30.04R
HILLSBORO      SUNNY     78  35  21 SE5       30.05R
CORSICANA      SUNNY     78  37  22 S3        30.07R
MEXIA          SUNNY     77  38  24 S18       30.05R
HEARNE         SUNNY     79  40  24 SE9       30.08R
CAMERON        SUNNY     79  36  21 SW15      30.07R
TEMPLE         SUNNY     81  37  20 S12       30.05R
KILLEEN        SUNNY     81  29  15 S8        30.04R
KILLEEN-SKYLRK SUNNY     82  33  17 S7        30.05R
FORT HOOD      SUNNY     83  28  13 S10       30.03R
GATESVILLE     SUNNY     82  32  16 S10       30.06R
HAMILTON       SUNNY     82  32  16 N3        30.06R
LAMPASAS       SUNNY     82  30  15 S5        30.05R
$$

TXZ095>097-106>112-122>126-135>138-148>153-164>167-120000-
EAST TEXAS

CITY           SKY/WX    TMP DP  RH WIND       PRES   REMARKS
PARIS          SUNNY     72  37  28 NE3       30.07R
SULPHUR SPRNGS SUNNY     71  35  27 CALM      30.08S
MOUNT PLEASANT SUNNY     73  34  23 CALM      30.07S
GILMER         SUNNY     74  33  22 CALM      30.06R
MINEOLA        SUNNY     75  36  23 SW7       30.07S
TYLER          SUNNY     76  33  21 W8        30.07R
LONGVIEW       SUNNY     76  34  21 W7        30.06R
MARSHALL       SUNNY     75  29  18 W5        30.08R
ATHENS         SUNNY     73  36  25 CALM      30.06R
PALESTINE      SUNNY     80  35  20 S6        30.07R
JACKSONVILLE   SUNNY     77  38  24 S6        30.09R
HENDERSON      SUNNY     77  36  22 W7        30.08R
CENTER         FAIR      79  34  19 SW3       30.07R
NACOGDOCHES    SUNNY     75  39  27 SW9       30.08R
LUFKIN         SUNNY     76  43  30 S8        30.08R
$$

SUPPLEMENTAL OBSERVATIONS (CENTRAL)

CITY           SKY/WX    TMP DP  RH WIND       PRES   REMARKS
LAKE TEXOMA      N/A     70  32  24 N5          N/A
CADDO GRASSLND   N/A     73  37  27 N3          N/A
PAT MAYSE LAKE   N/A     72  32  23 N3          N/A
GREENVILLE       N/A     73  36  25 NW1         N/A
ATHENS           N/A     75  36  23 W2          N/A
MCGREGOR         N/A     81  36  19 S10         N/A
TEMPLE           N/A     79  36  21 S16         N/A
$$

SUPPLEMENTAL OBSERVATIONS (WEST)

CITY           SKY/WX    TMP DP  RH WIND       PRES   REMARKS
MILLERS CREEK    N/A     70  32  24 E9          N/A
POSSUM KINGDOM   N/A     73  32  21 SE2         N/A
LBJ GRASSLAND    N/A     73  32  21 NE5         N/A
GRANBURY         N/A     79  34  19 NE5         N/A
HAMBY            N/A     73  30  20 NW3         N/A
IVIE RESERVOIR   N/A     82  23  11 NW2G13      N/A
COLORADO BEND    N/A     82  25  12 W6          N/A
$$

SUPPLEMENTAL OBSERVATIONS (EAST)

CITY           SKY/WX    TMP DP  RH WIND       PRES   REMARKS
TEXARKANA        N/A     72  37  28 E3          N/A
LINDEN           N/A     75  37  25 NE2         N/A
HENDERSON        N/A     79  36  21 SW5G13      N/A
LUFKIN           N/A     79  39  24 MISG        N/A
N SABINE NF      N/A     77  37  24 MISG        N/A
$$

SUPPLEMENTAL OBSERVATIONS ARE A COLLECTION OF AUTOMATED INSTRUMENTS
THAT ARE MAINTAINED BY A VARIETY OF FEDERAL AND STATE AGENCIES.
CERTAIN ELEMENTS...SUCH AS HUMIDITY VALUES AND SUSTAINED WIND
SPEEDS...MAY BE APPROXIMATED.




USA.gov is the U.S. government's official web portal to all federal, state and local government web resources and services.